map of SVX home
Great Circle Mapper logo
SVX - Airport
Location
City:  Ekaterinburg, Sverdlovskaya, Russian Federation (Russia)
Near (Alt.):Yekaterinburg
Name:Koltsovo
ICAO / IATA:USSS / SVX

Details
Type:Airport (Aerodrome, Airfield)
Use:Public/Civil
Latitude:5644'35"N (56.743108)
Longitude:6048'10"E (60.802728)
Datum:WGS 1984
Elevation:764 ft (233 m)
Variation:14.64E (WMM2015 magnetic declination)
0.08 annual change
Runways:2
Longest:9925 × 174 ft (3025 × 53 m), paved

Time
Time Zone:UTC+5 (DST+6)

Weather
METAR:USSS 210230Z 23007MPS 9999 SCT036 BKN067 03/M01 Q1000 7629//40 NOSIG RMK QFE729
TAF:USSS 210156Z 2103/2203 21008MPS 9999 BKN010CB
TEMPO 2103/2115 23014MPS 530002

Related Locations
Nearby:
Farthest:AAXX: 10682 mi / 17191 km
Rothera Point, Adelaide Island, British Antarctic Territory, AQ

Find:

   beyond  
but within

Other Information
Maps:
NOTAMs:
Links:
Sources:

  
flag of Russian Federation (Russia)
flag of Sverdlovskaya
flag of Ekaterinburg
  

Sectional Chart

Flight Planning
at skyvector.com

Satellite Image

Google Maps Satellite View

 

Copyright © 2004-2015 Karl L. Swartz. All rights reserved.
The Great Circle Mapper name and logo are trademarks of the Great Circle Mapper.
All other trademarks mentioned herein belong to their respective owners.
Please see credits for attibutions and further copyright information.

  Follow gcmap on Facebook Follow gcmap on Twitter Follow gcmap on Google+

hCard Microformat

Geo Microformat